Wind_Speed
24 24 25 25 26 27 29 30 29 28 28 27 26 26 25 24 23 24 24 23 22 22 22 21 22 22 22 22 22 21 21 21 21 22 22 22 23 23 23 23 22 22 21 21
25 24 25 26 27 28 29 30 29 29 29 28 27 27 26 25 25 24 24 24 23 23 23 23 23 22 22 23 22 22 22 22 23 23 23 23 23 24 23 22 23 23 22 21
24 25 25 26 26 27 28 29 30 31 30 29 29 28 27 27 26 27 26 25 24 24 24 24 23 23 23 24 24 24 24 24 24 24 24 24 23 24 25 24 23 23 22 22
26 26 27 25 25 26 27 29 30 31 31 31 30 30 29 29 29 28 27 27 26 24 24 24 24 24 24 24 24 24 24 25 25 25 24 24 24 25 25 24 24 24 23 22
26 27 26 25 26 25 26 27 29 30 31 30 30 30 30 29 29 29 29 27 26 26 26 26 26 26 24 24 25 25 24 24 24 24 24 24 24 24 23 24 24 23 24 23
26 26 25 24 25 25 26 27 28 29 30 29 28 30 30 30 30 30 30 29 28 27 27 26 26 26 25 25 25 25 24 23 24 24 24 23 23 23 23 23 23 23 23 23
26 26 25 24 25 26 27 27 27 28 29 29 29 28 28 29 30 29 30 29 28 28 28 27 27 26 26 25 25 25 24 24 25 25 24 24 23 22 22 21 22 22 22 22
25 25 25 25 25 27 27 27 28 28 29 29 29 29 28 29 29 29 29 29 29 28 27 27 27 27 27 26 25 25 25 25 25 25 25 24 23 23 22 22 22 21 21 21
25 25 24 25 25 26 27 27 27 28 28 29 28 29 29 29 29 30 30 29 29 28 28 27 27 27 26 25 25 26 25 25 25 25 24 23 23 23 22 22 22 21 20 20
24 24 24 24 24 25 26 26 27 28 28 28 28 29 29 27 27 28 28 28 28 28 28 28 28 28 27 26 26 25 25 25 25 24 23 23 23 23 22 22 22 21 21 21
24 23 23 23 23 24 24 25 26 25 25 26 26 27 27 27 27 27 28 28 27 27 26 27 27 26 26 26 25 24 24 24 24 24 23 22 22 22 22 22 22 22 22 21
23 23 22 21 22 24 24 24 24 24 24 23 24 25 24 25 25 26 26 25 26 26 25 25 25 24 24 25 24 23 23 23 23 23 23 23 23 23 23 23 23 23 22 21
20 21 22 21 21 22 22 21 22 22 22 20 20 21 22 23 25 25 25 26 25 25 25 24 24 23 23 23 23 23 23 23 22 22 23 23 23 24 23 23 23 23 23 22
17 18 19 20 21 21 20 19 19 19 20 20 20 21 22 23 24 24 25 25 25 25 25 24 23 23 23 23 22 23 23 23 22 22 22 23 23 23 23 23 23 23 22 21
15 16 17 17 19 18 18 18 18 18 19 19 19 20 20 20 20 22 23 24 25 24 24 23 23 23 22 22 22 22 22 22 22 21 22 22 23 23 23 23 23 22 22 22
14 15 15 16 16 16 16 16 17 17 18 18 19 18 18 17 18 20 21 22 23 22 22 22 22 21 21 21 22 21 21 21 21 21 21 21 22 23 23 23 22 22 22 22
15 15 14 14 14 15 15 15 16 17 17 17 17 17 17 17 17 17 19 19 19 20 21 21 21 21 22 22 21 20 20 20 21 21 21 21 21 21 22 22 21 21 22 22
14 14 14 13 13 14 15 15 16 16 17 17 17 17 17 17 18 17 18 18 19 20 20 20 20 21 22 21 21 20 20 20 20 20 21 21 21 21 21 22 22 22 22 23
14 14 14 14 15 15 15 15 15 16 17 17 17 18 18 18 18 17 18 19 20 20 20 20 20 19 19 19 19 20 19 19 20 20 20 21 21 21 22 22 22 23 23 24
12 13 13 14 14 15 15 16 16 16 16 16 17 17 18 17 18 18 18 18 19 19 20 19 18 18 17 17 18 18 18 19 19 20 21 21 22 22 22 22 22 23 23 23
10 11 12 13 14 15 15 16 16 16 16 16 16 17 17 17 18 18 18 18 18 19 18 18 18 18 17 17 18 19 19 19 20 21 22 22 23 23 23 23 23 23 23 24
10 10 11 12 13 14 14 15 15 15 15 15 15 15 16 17 17 17 18 18 17 18 18 17 18 18 17 17 18 18 19 19 20 19 20 21 23 24 24 24 24 24 24 24
10 11 11 12 13 13 14 14 14 14 15 15 15 15 15 16 15 15 16 17 17 18 19 18 18 18 18 18 18 19 20 20 20 21 21 21 22 23 23 24 25 26 26 26
12 12 12 13 13 13 13 14 14 14 15 15 15 14 14 14 15 15 15 16 18 19 19 19 19 19 20 20 20 21 21 21 21 21 22 22 22 23 24 24 25 26 27 27
12 12 12 12 12 12 13 13 13 14 14 14 14 14 14 14 15 15 16 17 17 18 18 18 18 19 19 20 21 22 22 22 23 23 23 24 24 25 25 26 27 27 28 28
12 12 12 12 12 12 12 12 12 13 13 14 14 14 14 15 15 16 16 16 16 17 18 19 19 20 20 21 21 22 23 23 23 23 24 24 25 25 26 27 27 28 28 29
10 11 11 12 12 12 13 13 13 13 14 14 14 14 15 15 16 16 16 16 17 17 18 19 20 21 22 22 23 23 23 23 24 24 24 25 26 26 27 28 28 28 28 28
Wind_Direction
241 241 242 243 242 242 243 246 249 251 253 253 254 257 258 260 259 259 262 265 269 268 268 269 269 269 267 268 267 265 265 268 269 269 271 271 271 271 271 268 266 266 266 264
243 243 245 243 242 244 245 248 251 252 254 256 256 256 257 262 261 260 260 264 266 267 266 268 268 269 269 271 269 266 268 269 270 270 271 272 272 269 269 267 264 264 263 264
248 246 245 241 242 244 246 248 250 252 254 257 257 257 258 260 260 262 263 264 265 265 265 265 267 270 269 271 272 270 270 271 271 272 273 272 271 269 267 267 264 262 263 265
251 249 247 244 245 246 248 249 251 253 254 256 257 257 259 260 261 262 262 264 265 265 266 267 268 268 268 270 271 272 271 270 271 271 272 271 272 270 268 266 266 264 263 265
252 250 249 247 247 249 250 250 252 254 255 254 255 256 257 260 261 262 263 264 265 264 266 270 271 272 271 270 271 272 271 270 270 271 273 274 273 270 267 265 266 267 263 264
253 253 253 251 250 252 254 254 253 254 255 257 257 258 259 260 261 262 261 262 262 263 267 271 272 271 270 270 269 268 268 269 269 270 274 275 274 271 267 265 264 264 264 262
254 256 254 253 253 253 257 258 256 256 258 257 259 259 259 259 260 261 262 262 262 265 267 270 270 270 269 266 265 265 267 269 268 270 271 273 273 271 268 267 266 264 264 263
253 255 255 256 256 256 257 258 258 257 258 258 258 258 258 258 259 261 262 262 263 265 265 267 268 269 267 265 264 265 266 268 268 270 269 271 271 271 271 268 267 265 262 262
255 256 257 256 258 258 257 257 260 260 261 261 259 259 259 258 259 260 260 262 262 263 264 263 265 266 268 267 265 264 266 268 269 269 269 269 269 270 268 269 268 262 261 260
256 256 257 259 259 261 259 260 261 262 260 259 259 259 259 261 262 260 258 259 259 261 263 264 266 268 267 264 263 264 265 266 266 268 269 268 267 266 265 267 268 263 261 262
255 255 257 258 259 260 260 259 261 260 259 258 260 260 261 262 262 261 257 257 260 264 264 264 267 269 265 263 261 263 263 263 265 266 266 266 265 265 265 263 263 263 262 264
256 256 256 257 258 259 261 262 262 264 265 264 263 262 263 261 262 262 258 257 259 260 261 263 265 267 266 264 262 264 263 263 264 264 264 264 264 264 262 260 261 261 262 263
256 256 257 260 261 263 264 266 265 265 264 264 263 265 265 261 260 260 258 257 257 256 258 261 263 263 265 264 262 263 264 263 263 264 263 264 263 262 262 260 259 259 260 261
257 258 259 261 263 264 263 263 262 262 264 265 266 267 265 261 259 259 258 256 256 256 258 260 262 262 262 262 262 263 265 265 264 263 262 261 260 260 260 260 259 258 258 259
260 260 262 263 263 262 264 265 265 266 266 266 268 271 270 267 261 259 258 257 257 257 258 260 261 262 262 260 261 264 265 265 263 263 262 260 261 261 260 259 259 258 259 261
256 261 264 262 262 261 264 265 266 266 267 269 270 273 274 272 264 262 263 261 259 259 260 261 262 262 261 262 262 263 264 262 261 261 261 261 261 259 258 257 255 255 258 261
259 262 267 268 265 264 265 266 267 265 265 268 270 271 273 272 269 266 264 265 263 262 264 263 262 263 263 264 262 262 261 261 261 261 260 260 260 259 258 256 257 257 259 261
260 262 266 268 268 267 267 265 267 267 266 267 270 271 271 271 271 269 267 266 264 263 264 263 263 263 262 261 258 259 260 261 262 262 260 260 259 260 261 259 259 261 262 262
262 264 265 264 264 266 269 270 270 270 269 269 269 270 269 269 267 266 266 265 264 264 265 267 267 266 264 260 260 261 261 261 262 261 260 260 260 260 261 261 261 261 263 263
269 268 269 267 267 269 272 274 275 274 273 271 268 268 267 267 266 265 265 265 266 266 267 266 265 266 265 262 261 260 262 263 263 263 263 262 262 262 261 262 262 262 263 262
278 276 275 273 273 274 275 277 277 276 274 273 270 268 267 265 266 265 263 264 265 266 266 266 265 264 263 263 263 262 262 263 266 265 263 263 262 261 261 261 262 263 263 262
283 286 284 280 277 276 278 278 277 276 275 274 274 271 270 269 269 265 262 262 264 265 266 268 268 266 266 265 264 264 267 266 266 268 266 265 263 262 263 264 264 264 265 265
280 283 285 284 281 280 280 278 277 277 277 276 275 277 274 269 268 266 263 262 263 264 264 266 267 268 267 267 268 269 270 271 270 270 271 269 268 268 268 267 267 267 266 267
283 284 285 287 287 285 284 283 281 280 278 277 275 274 274 272 271 269 267 265 263 261 262 263 265 268 270 270 271 273 273 273 274 274 274 273 272 273 273 272 271 270 269 268
285 287 289 291 290 288 287 285 283 281 280 280 278 276 273 273 273 273 273 272 269 264 265 266 266 269 271 272 273 274 275 275 275 275 275 275 275 276 276 276 274 272 271 271
284 288 293 294 292 289 287 286 284 283 281 278 276 276 276 274 273 273 273 274 272 271 270 270 269 271 273 274 276 278 277 276 276 276 277 277 277 278 278 278 276 274 273 274
291 295 296 296 295 294 291 289 286 284 281 277 276 276 277 277 276 274 274 275 276 274 272 271 272 274 276 276 277 278 278 277 278 278 279 279 279 278 279 280 278 276 276 277
Height
5763 5765 5767 5768 5770 5771 5772 5772 5774 5776 5777 5779 5781 5782 5783 5783 5784 5784 5785 5786 5787 5787 5787 5787 5787 5787 5788 5788 5788 5788 5787 5787 5788 5788 5788 5788 5787 5787 5787 5787 5787 5787 5787 5787
5757 5758 5759 5761 5762 5764 5765 5766 5767 5768 5770 5772 5774 5775 5775 5776 5777 5778 5779 5780 5781 5781 5782 5782 5782 5781 5781 5781 5781 5781 5781 5781 5781 5781 5781 5780 5780 5780 5779 5779 5780 5779 5779 5779
5749 5751 5752 5753 5756 5757 5758 5759 5760 5761 5764 5764 5766 5767 5768 5769 5770 5771 5772 5772 5773 5774 5775 5775 5775 5775 5775 5775 5774 5774 5774 5774 5774 5774 5773 5773 5773 5772 5772 5772 5772 5772 5773 5773
5742 5745 5745 5750 5749 5750 5751 5751 5752 5754 5756 5757 5758 5759 5760 5761 5762 5763 5764 5765 5766 5766 5767 5768 5768 5768 5768 5768 5768 5768 5767 5767 5767 5766 5766 5766 5765 5765 5764 5765 5765 5765 5765 5766
5734 5735 5737 5741 5742 5742 5743 5744 5745 5746 5747 5749 5750 5751 5752 5753 5754 5756 5756 5757 5758 5759 5760 5760 5761 5760 5760 5761 5760 5761 5760 5760 5760 5759 5759 5758 5758 5758 5757 5758 5758 5758 5758 5758
5726 5727 5730 5734 5734 5734 5736 5737 5738 5739 5740 5741 5742 5743 5745 5746 5747 5748 5749 5750 5751 5751 5752 5753 5753 5753 5753 5753 5753 5753 5753 5753 5753 5752 5752 5751 5751 5750 5750 5750 5750 5751 5751 5751
5720 5720 5723 5726 5726 5728 5729 5730 5730 5731 5731 5733 5734 5736 5738 5738 5739 5740 5741 5741 5742 5743 5744 5745 5746 5746 5746 5745 5746 5746 5746 5746 5746 5745 5745 5744 5744 5743 5743 5743 5743 5744 5744 5744
5713 5714 5718 5718 5719 5720 5721 5721 5722 5722 5723 5725 5726 5727 5728 5730 5731 5732 5733 5734 5735 5736 5737 5737 5737 5737 5737 5737 5738 5738 5738 5738 5738 5737 5737 5737 5737 5736 5736 5736 5736 5737 5737 5737
5707 5709 5710 5710 5711 5711 5712 5713 5713 5714 5715 5716 5717 5718 5720 5722 5722 5723 5724 5726 5727 5728 5728 5729 5729 5729 5729 5729 5730 5730 5730 5730 5730 5730 5730 5730 5730 5730 5730 5730 5729 5730 5730 5730
5699 5700 5701 5702 5703 5704 5704 5705 5705 5706 5707 5708 5709 5710 5711 5712 5713 5714 5716 5717 5718 5719 5719 5720 5720 5721 5721 5721 5721 5722 5722 5722 5722 5722 5722 5722 5722 5723 5723 5723 5723 5723 5724 5723
5692 5693 5694 5695 5696 5697 5697 5697 5698 5697 5698 5699 5700 5701 5702 5703 5705 5705 5707 5708 5709 5710 5711 5712 5712 5712 5713 5713 5713 5713 5714 5714 5715 5715 5715 5715 5715 5715 5716 5716 5717 5717 5717 5717
5685 5686 5687 5688 5689 5690 5690 5691 5691 5691 5692 5692 5692 5693 5694 5695 5696 5697 5698 5700 5701 5702 5703 5704 5705 5705 5705 5706 5706 5706 5706 5707 5707 5707 5707 5708 5708 5709 5709 5709 5710 5710 5710 5710
5679 5679 5680 5681 5682 5683 5684 5684 5684 5685 5685 5685 5685 5686 5687 5688 5689 5689 5691 5692 5694 5695 5696 5696 5697 5698 5698 5698 5698 5698 5699 5699 5699 5699 5700 5700 5701 5701 5702 5703 5703 5703 5704 5704
5673 5674 5675 5675 5676 5676 5677 5678 5678 5679 5679 5679 5680 5680 5681 5681 5681 5682 5683 5685 5686 5687 5689 5689 5690 5690 5691 5691 5691 5691 5691 5691 5691 5692 5692 5693 5693 5694 5695 5696 5696 5696 5697 5697
5668 5669 5670 5670 5670 5671 5672 5672 5673 5673 5673 5674 5674 5674 5674 5673 5673 5675 5676 5677 5678 5680 5681 5682 5683 5683 5683 5683 5684 5684 5684 5684 5684 5685 5685 5686 5686 5687 5688 5688 5689 5689 5690 5690
5664 5664 5664 5665 5665 5666 5666 5666 5667 5667 5668 5668 5668 5668 5668 5667 5667 5668 5669 5670 5670 5672 5673 5674 5675 5675 5676 5676 5676 5676 5676 5677 5677 5678 5678 5679 5679 5680 5680 5681 5682 5682 5683 5683
5658 5659 5659 5660 5660 5660 5661 5661 5662 5662 5662 5662 5663 5663 5662 5662 5662 5662 5663 5663 5664 5665 5666 5667 5668 5668 5669 5669 5669 5669 5670 5670 5671 5671 5671 5672 5672 5673 5673 5674 5675 5675 5676 5676
5653 5654 5654 5655 5655 5656 5656 5656 5657 5657 5657 5657 5657 5657 5657 5657 5657 5657 5657 5658 5659 5660 5660 5661 5661 5662 5662 5662 5663 5663 5663 5664 5664 5664 5665 5665 5666 5666 5666 5667 5667 5668 5668 5668
5649 5649 5650 5650 5650 5651 5651 5651 5651 5651 5651 5651 5651 5651 5652 5652 5652 5652 5653 5653 5654 5654 5655 5655 5655 5655 5656 5656 5656 5656 5657 5657 5658 5658 5658 5659 5659 5659 5659 5659 5660 5660 5660 5660
5644 5644 5645 5645 5645 5645 5646 5646 5646 5646 5645 5645 5646 5646 5646 5646 5647 5647 5648 5648 5648 5649 5649 5649 5649 5650 5650 5650 5650 5651 5651 5651 5652 5652 5652 5652 5652 5652 5652 5653 5652 5652 5652 5652
5640 5640 5640 5640 5640 5640 5640 5640 5640 5640 5640 5640 5640 5641 5641 5641 5641 5641 5642 5643 5643 5643 5644 5644 5644 5644 5644 5645 5645 5645 5645 5645 5645 5644 5644 5644 5645 5645 5645 5645 5645 5645 5645 5645
5637 5637 5637 5636 5636 5636 5636 5636 5636 5635 5635 5635 5635 5635 5635 5636 5635 5636 5636 5637 5637 5637 5638 5638 5638 5638 5638 5638 5639 5638 5638 5638 5638 5637 5637 5637 5637 5637 5637 5637 5637 5637 5637 5636
5634 5633 5633 5633 5632 5632 5631 5631 5631 5630 5630 5630 5630 5630 5630 5630 5630 5630 5630 5631 5631 5631 5632 5632 5632 5632 5632 5632 5632 5632 5632 5631 5631 5631 5630 5630 5629 5629 5629 5629 5628 5628 5628 5628
5630 5630 5629 5628 5628 5627 5627 5626 5626 5625 5625 5625 5625 5625 5625 5625 5624 5625 5625 5625 5625 5625 5626 5626 5626 5626 5626 5625 5625 5625 5624 5624 5624 5623 5623 5622 5621 5621 5620 5620 5619 5619 5618 5618
5626 5625 5625 5624 5623 5623 5622 5621 5621 5620 5620 5620 5619 5619 5619 5619 5619 5619 5619 5619 5619 5619 5619 5619 5619 5619 5619 5618 5618 5617 5617 5616 5616 5615 5614 5614 5613 5612 5611 5610 5610 5609 5608 5608
5622 5622 5621 5620 5619 5619 5618 5617 5617 5616 5615 5615 5615 5614 5614 5614 5614 5613 5613 5613 5613 5613 5613 5612 5612 5612 5612 5611 5611 5610 5609 5608 5607 5606 5606 5605 5604 5603 5602 5601 5600 5599 5598 5597
5619 5618 5617 5616 5615 5614 5614 5613 5612 5611 5611 5610 5610 5610 5609 5609 5608 5608 5608 5608 5607 5607 5606 5606 5606 5605 5604 5604 5603 5602 5601 5599 5598 5598 5597 5595 5594 5593 5592 5590 5589 5588 5588 5587